Wind_Speed
42 41 40 41 38 35 31 28 28 27 26 23 21 19 16 16 17 27 36 30 37 35 38 39 38 38 37 35 33 31 30 26 22 19 16 14 12 8 5 5 5 5 5 7 6
48 44 45 43 41 39 35 31 31 32 32 31 27 25 22 22 21 28 38 32 36 38 34 35 38 38 37 35 34 33 29 27 24 22 19 16 13 10 8 6 7 7 7 8 8
53 45 50 48 45 44 39 36 35 35 36 36 34 31 28 28 29 28 32 34 28 32 37 38 36 37 36 36 35 33 29 29 26 23 21 18 15 12 11 10 8 9 10 10 10
58 53 53 51 50 46 44 42 41 40 40 38 39 37 35 33 33 33 31 32 31 33 35 39 38 37 37 36 35 32 30 32 28 26 23 21 19 17 16 15 12 11 13 12 12
59 56 56 55 53 51 49 45 44 44 44 44 43 42 41 37 37 34 33 36 35 36 35 40 37 39 39 38 35 34 34 34 30 29 27 24 22 19 20 17 14 14 15 15 14
59 58 55 54 55 52 51 48 47 47 48 46 46 45 45 43 41 39 37 36 37 35 36 36 41 42 41 39 38 37 35 35 33 31 30 27 25 22 24 21 19 16 16 18 17
57 58 56 55 56 53 52 50 51 51 51 50 50 48 46 45 44 43 41 37 38 39 34 36 38 39 40 40 41 39 39 38 35 34 32 30 29 23 30 25 21 20 20 22 23
57 53 57 56 58 55 52 52 52 53 52 52 52 50 48 47 45 44 46 42 39 37 42 38 38 43 41 42 44 42 41 40 37 37 35 34 29 29 31 29 25 24 24 24 24
57 49 55 54 55 57 54 54 53 54 54 55 55 54 52 50 49 47 46 44 42 41 41 42 39 39 46 42 44 41 41 41 39 38 38 37 31 33 31 32 29 26 24 24 26
59 58 53 54 52 54 55 56 55 54 55 57 59 57 54 53 52 50 48 45 43 42 42 44 43 39 39 38 38 40 39 38 37 37 39 39 34 32 32 34 32 28 25 26 28
52 57 57 49 53 55 52 52 54 57 57 58 59 60 58 57 55 53 50 49 46 44 43 42 43 42 39 39 38 39 38 38 39 39 39 40 37 33 33 34 33 32 29 27 29
49 52 60 56 52 52 51 51 51 57 57 57 57 59 61 59 57 56 54 52 50 47 45 44 43 40 40 40 42 43 40 39 37 38 39 38 36 34 33 31 30 31 30 28 30
48 47 48 52 48 53 54 48 51 51 58 62 62 61 63 62 60 58 57 53 52 50 47 46 44 41 40 39 39 39 38 37 37 38 39 39 37 34 32 32 31 30 30 31 31
41 47 45 44 42 44 50 52 52 57 57 58 59 66 65 66 63 62 61 58 56 53 52 51 49 46 44 42 41 40 39 38 38 39 40 38 39 33 32 31 30 30 31 33 36
47 38 43 41 36 38 39 49 57 57 62 60 60 59 66 65 65 65 63 62 60 57 57 55 53 50 46 42 42 41 40 40 39 39 40 39 41 35 32 30 30 31 34 35 36
49 46 42 42 39 39 43 46 53 54 55 56 59 60 62 66 69 65 63 62 62 60 59 58 56 54 50 47 46 46 44 44 43 43 44 41 41 41 33 33 33 35 34 36 38
52 50 48 39 39 43 44 43 61 58 50 52 52 54 58 62 68 70 66 66 66 65 63 63 61 57 54 52 50 50 48 48 49 48 46 45 43 42 40 39 39 38 38 37 38
46 48 55 47 45 46 44 43 51 51 48 46 46 51 53 58 59 68 67 64 64 62 59 59 60 57 56 54 50 49 49 48 48 49 49 50 48 44 46 43 42 41 41 42 42
42 48 51 48 49 50 42 48 42 46 49 47 50 54 56 52 52 59 67 71 65 61 60 57 59 57 55 53 50 51 52 48 49 51 53 54 52 50 49 51 49 47 46 46 46
43 43 53 48 45 47 49 46 44 39 38 45 44 42 40 46 50 48 51 60 68 63 58 57 54 53 55 54 54 54 53 52 53 56 57 57 55 50 49 50 53 54 52 51 50
40 47 40 48 52 55 53 45 47 46 38 33 36 39 37 42 44 42 46 46 54 64 58 57 59 59 58 57 55 54 55 53 52 52 54 54 54 51 52 56 59 57 59 55 52
39 45 45 43 47 51 50 41 44 41 42 39 40 45 41 38 44 42 38 34 42 53 64 69 69 62 58 59 56 55 54 55 56 60 61 63 73 68 65 67 65 59 56 56 52
56 48 51 50 49 43 46 49 46 44 47 49 42 39 41 42 48 43 43 44 44 42 42 48 60 66 68 65 65 69 70 69 69 68 72 71 67 72 66 65 60 53 49 49 50
54 59 55 51 51 44 41 48 50 48 38 38 49 41 40 42 42 42 44 46 48 45 44 44 48 50 50 52 55 56 52 56 58 61 56 59 53 54 57 55 53 52 52 51 48
62 61 61 58 47 51 48 44 40 40 38 41 42 45 38 37 34 36 38 40 41 48 53 50 49 52 52 54 55 56 55 54 55 50 51 39 45 46 50 52 51 50 48 48 49
57 59 58 59 63 50 54 53 47 45 42 39 32 38 38 39 39 33 36 40 46 44 45 45 42 43 46 49 49 49 51 53 54 53 53 51 45 45 47 48 49 52 54 53 49
58 57 57 59 61 58 58 54 49 49 50 47 36 31 31 31 45 43 43 43 43 48 47 46 42 31 37 38 38 45 47 50 47 46 45 46 37 40 41 44 47 49 50 50 51
Wind_Direction
221 219 221 223 228 226 225 226 222 216 214 206 204 206 198 192 190 199 183 198 202 201 196 196 197 195 199 199 199 193 191 192 194 192 189 192 201 201 216 256 280 242 214 232 233
217 217 218 221 225 225 222 219 222 217 210 208 208 208 200 196 193 196 180 190 202 204 205 201 200 199 201 200 201 199 194 198 199 199 201 205 215 216 220 243 267 269 232 228 237
217 216 219 216 219 224 221 221 218 217 212 208 208 211 208 205 198 200 199 194 208 205 204 210 206 204 204 204 203 204 201 205 203 209 208 213 218 230 239 243 262 269 245 229 236
220 213 217 217 219 220 221 219 214 214 216 212 209 213 210 213 211 209 205 208 210 217 216 215 214 210 209 209 208 210 210 213 208 212 219 222 225 226 240 246 249 255 251 233 235
220 219 218 218 220 219 220 219 217 212 213 213 213 213 215 216 216 215 212 211 215 222 219 220 221 219 216 216 213 215 216 219 216 217 223 228 234 238 245 248 255 252 250 243 236
223 222 221 219 223 220 220 220 218 215 211 213 213 212 212 216 219 220 217 215 214 224 225 220 221 222 221 219 218 220 220 226 224 224 228 232 237 240 249 246 251 251 248 246 239
229 227 226 224 225 224 220 218 219 217 214 211 212 211 211 214 216 219 219 215 212 218 228 227 223 224 224 222 222 222 224 226 231 233 233 236 241 244 250 256 250 248 244 239 240
225 228 226 228 228 228 224 219 219 218 217 215 215 212 212 212 214 217 217 217 216 214 224 230 225 226 230 222 230 227 227 231 234 238 240 241 242 246 252 256 253 252 250 243 241
225 225 228 231 230 229 228 225 222 220 218 217 217 215 213 215 215 216 218 218 218 217 219 229 224 225 226 227 228 231 232 233 235 238 242 245 244 246 249 256 254 253 249 246 244
226 227 225 226 231 232 230 227 225 224 222 218 219 219 218 217 218 217 219 218 219 220 220 222 228 228 230 229 231 238 236 234 237 238 240 244 244 244 249 253 256 253 248 244 240
223 225 226 225 227 226 227 233 228 228 225 224 222 221 219 218 220 220 219 219 220 221 223 224 224 232 232 231 230 233 236 237 238 239 241 244 245 248 249 253 256 255 248 242 238
219 222 226 229 226 222 226 226 230 228 226 226 225 224 225 221 221 222 222 223 222 223 223 225 223 224 226 229 229 235 236 237 239 243 242 244 246 247 252 251 252 256 254 248 240
213 215 215 224 230 229 223 226 230 226 224 223 222 223 226 225 223 223 224 225 226 226 226 226 226 227 227 230 233 234 236 238 241 241 243 242 243 245 248 253 255 256 255 251 244
210 213 214 216 220 225 225 228 230 231 231 226 228 222 223 226 224 225 225 225 227 227 228 228 228 227 229 229 232 236 239 241 243 243 244 246 245 243 248 253 256 258 256 249 248
216 224 209 213 218 223 224 225 224 228 230 227 230 228 224 225 227 226 228 228 228 230 231 231 230 232 232 235 237 238 242 244 246 249 248 248 252 240 244 250 253 255 256 256 253
209 217 214 218 214 212 219 231 227 227 230 231 230 231 229 227 226 227 229 230 230 230 232 233 234 235 235 236 239 240 243 245 247 248 249 250 255 250 251 250 249 252 255 257 258
207 216 222 218 221 221 218 214 222 228 231 229 230 229 231 230 229 228 230 230 232 231 231 234 235 237 238 239 240 243 245 247 250 251 253 256 257 257 258 255 255 257 257 257 257
205 209 217 223 220 217 214 219 224 223 232 234 232 224 228 229 229 230 232 233 231 234 235 237 239 240 241 243 246 247 250 253 257 256 255 255 253 252 261 259 259 260 262 264 263
204 204 204 215 219 215 214 231 232 229 229 229 230 228 227 228 231 233 235 235 236 237 239 240 240 241 241 241 242 244 247 252 254 256 257 257 256 257 260 265 264 261 262 261 264
202 202 204 206 210 219 226 233 226 228 225 226 227 227 235 236 237 235 236 234 234 233 234 238 238 240 241 240 241 245 245 246 249 252 255 259 259 261 262 262 267 272 270 265 262
207 209 198 207 217 223 227 224 222 225 227 227 232 237 240 232 231 237 239 238 234 233 236 236 240 240 241 243 243 244 245 246 251 252 258 261 259 260 258 266 271 272 268 266 264
208 211 208 207 213 223 223 219 222 223 229 233 241 237 236 235 236 233 234 228 232 234 238 239 241 239 239 239 243 245 245 247 249 253 257 262 258 258 261 267 271 268 265 270 271
221 212 215 210 209 210 216 219 227 230 235 241 243 238 240 245 241 238 238 234 235 238 239 237 238 240 243 247 247 246 245 248 254 257 256 258 262 263 263 267 267 269 271 268 269
218 218 220 221 220 216 214 222 224 228 226 226 236 238 240 240 239 242 238 237 239 239 238 239 241 242 243 247 252 252 252 253 254 252 257 258 260 259 261 263 265 269 269 269 268
218 218 215 214 217 220 221 219 214 215 218 217 229 231 227 238 243 242 238 231 233 236 242 247 248 248 249 252 255 250 250 248 249 252 252 257 258 259 261 264 266 267 270 270 268
222 222 218 220 221 219 233 234 222 217 215 214 218 230 228 230 229 231 228 233 239 239 233 242 241 246 248 246 247 250 248 247 250 251 254 254 256 259 259 265 268 270 269 271 272
222 225 226 224 221 222 221 224 224 216 211 207 205 217 211 226 230 230 224 229 223 219 219 215 221 227 232 233 239 241 248 252 253 256 259 258 261 261 256 255 256 260 266 270 269
Height
5709 5715 5722 5727 5733 5737 5741 5747 5752 5754 5757 5763 5768 5772 5775 5778 5782 5786 5790 5798 5802 5806 5809 5813 5818 5820 5825 5828 5833 5836 5841 5846 5849 5852 5854 5856 5858 5860 5861 5862 5864 5865 5866 5865 5867
5700 5706 5715 5720 5725 5730 5735 5740 5747 5752 5754 5760 5765 5769 5773 5778 5781 5785 5788 5794 5800 5804 5809 5812 5815 5818 5823 5826 5830 5833 5838 5843 5847 5849 5852 5854 5856 5858 5859 5860 5862 5863 5865 5864 5866
5692 5696 5705 5711 5718 5725 5727 5732 5739 5746 5750 5754 5760 5766 5772 5777 5782 5784 5788 5791 5796 5800 5804 5812 5813 5817 5820 5824 5827 5832 5835 5838 5843 5847 5850 5852 5853 5856 5857 5858 5860 5861 5863 5864 5865
5683 5688 5696 5703 5710 5715 5721 5726 5733 5740 5746 5749 5755 5761 5768 5774 5778 5782 5785 5790 5793 5797 5802 5808 5812 5814 5818 5822 5824 5828 5831 5835 5838 5843 5846 5849 5851 5853 5856 5857 5857 5859 5860 5862 5863
5673 5680 5688 5696 5702 5707 5714 5719 5726 5732 5739 5744 5750 5756 5762 5768 5774 5778 5782 5787 5790 5795 5799 5803 5806 5811 5815 5818 5821 5824 5827 5831 5834 5837 5842 5845 5848 5850 5852 5854 5855 5856 5857 5859 5861
5664 5671 5678 5685 5694 5698 5705 5711 5718 5724 5731 5737 5743 5749 5755 5763 5767 5773 5777 5781 5784 5789 5793 5798 5803 5807 5811 5814 5817 5821 5823 5827 5831 5833 5836 5840 5843 5847 5847 5849 5853 5853 5854 5856 5857
5655 5662 5670 5677 5686 5691 5697 5703 5711 5717 5724 5730 5737 5742 5749 5755 5760 5766 5771 5775 5779 5785 5788 5792 5796 5802 5807 5808 5812 5815 5820 5821 5825 5829 5831 5835 5839 5844 5840 5846 5850 5849 5850 5852 5852
5646 5654 5662 5669 5677 5684 5690 5696 5703 5709 5716 5722 5729 5735 5742 5748 5754 5760 5766 5770 5774 5778 5783 5787 5791 5796 5800 5805 5808 5811 5814 5818 5820 5823 5826 5830 5835 5836 5837 5840 5843 5845 5846 5848 5849
5639 5645 5653 5660 5667 5673 5680 5688 5694 5701 5707 5714 5723 5729 5735 5743 5748 5753 5759 5763 5768 5771 5777 5782 5785 5791 5797 5800 5803 5806 5811 5813 5813 5817 5820 5825 5830 5830 5833 5834 5837 5840 5842 5844 5845
5630 5637 5645 5652 5658 5664 5671 5677 5685 5693 5699 5705 5713 5721 5730 5735 5739 5745 5751 5756 5761 5765 5770 5776 5780 5786 5791 5794 5800 5803 5803 5805 5808 5812 5813 5816 5822 5824 5826 5829 5831 5834 5836 5838 5840
5620 5627 5635 5642 5649 5656 5664 5669 5677 5684 5691 5699 5706 5712 5720 5726 5732 5738 5743 5749 5754 5759 5764 5769 5774 5782 5786 5787 5787 5792 5797 5799 5802 5804 5806 5809 5814 5817 5819 5822 5825 5827 5829 5832 5834
5612 5617 5624 5632 5640 5647 5656 5664 5669 5675 5681 5688 5695 5704 5710 5717 5725 5730 5737 5742 5748 5753 5758 5763 5768 5773 5774 5778 5783 5787 5791 5794 5795 5798 5801 5802 5808 5810 5812 5816 5818 5820 5822 5825 5828
5602 5609 5615 5625 5631 5640 5649 5654 5658 5663 5667 5674 5684 5692 5701 5707 5714 5722 5728 5735 5741 5747 5752 5757 5762 5764 5769 5773 5777 5780 5784 5786 5789 5791 5794 5796 5801 5804 5807 5809 5812 5814 5816 5818 5820
5595 5601 5608 5616 5624 5632 5640 5643 5647 5651 5654 5663 5672 5681 5689 5695 5704 5712 5718 5725 5731 5739 5743 5746 5751 5757 5761 5765 5769 5772 5775 5777 5781 5783 5787 5790 5793 5799 5802 5804 5806 5808 5809 5810 5811
5588 5593 5601 5610 5619 5625 5630 5630 5635 5639 5640 5655 5662 5670 5679 5686 5698 5703 5709 5714 5722 5728 5733 5742 5745 5749 5755 5761 5761 5765 5767 5769 5773 5775 5779 5783 5784 5794 5796 5798 5799 5799 5800 5802 5804
5583 5587 5594 5601 5608 5614 5616 5621 5625 5630 5633 5643 5652 5660 5669 5677 5684 5690 5697 5704 5711 5716 5724 5729 5734 5740 5747 5750 5752 5755 5758 5761 5763 5766 5769 5775 5777 5782 5790 5792 5792 5793 5793 5794 5796
5577 5583 5588 5594 5602 5605 5612 5613 5617 5618 5628 5636 5643 5651 5659 5667 5673 5679 5686 5691 5698 5705 5711 5718 5723 5730 5736 5740 5743 5747 5750 5752 5754 5757 5763 5765 5769 5775 5778 5781 5783 5785 5786 5787 5789
5570 5575 5581 5588 5592 5597 5602 5603 5604 5615 5621 5628 5636 5641 5646 5656 5661 5668 5675 5680 5689 5696 5703 5709 5715 5722 5729 5732 5737 5739 5740 5745 5747 5749 5753 5752 5759 5769 5765 5770 5774 5776 5777 5777 5779
5561 5566 5572 5577 5584 5589 5593 5590 5601 5607 5616 5621 5626 5630 5637 5644 5651 5658 5664 5673 5682 5691 5696 5700 5704 5711 5716 5719 5723 5726 5728 5737 5734 5737 5738 5743 5753 5758 5760 5759 5760 5766 5768 5769 5769
5552 5557 5565 5572 5571 5577 5580 5587 5595 5600 5606 5612 5617 5623 5630 5637 5644 5648 5653 5662 5669 5678 5683 5688 5693 5698 5702 5705 5709 5715 5723 5722 5723 5726 5727 5735 5742 5750 5751 5752 5750 5750 5754 5757 5758
5543 5549 5556 5563 5565 5564 5570 5580 5586 5593 5599 5605 5608 5615 5622 5626 5634 5638 5645 5651 5658 5669 5673 5676 5680 5685 5687 5693 5701 5704 5708 5709 5712 5714 5718 5723 5730 5739 5739 5739 5740 5739 5738 5742 5746
5535 5541 5547 5550 5555 5557 5565 5571 5580 5585 5591 5596 5602 5608 5614 5620 5624 5629 5635 5642 5648 5654 5658 5666 5668 5670 5677 5683 5688 5691 5697 5700 5699 5705 5706 5710 5716 5723 5726 5727 5727 5728 5729 5729 5731
5524 5533 5536 5542 5547 5552 5558 5565 5571 5577 5584 5590 5594 5599 5605 5610 5615 5621 5628 5633 5638 5643 5646 5651 5650 5656 5663 5671 5676 5678 5684 5688 5689 5691 5694 5698 5707 5708 5714 5715 5715 5717 5717 5718 5718
5514 5522 5526 5531 5538 5545 5551 5557 5563 5569 5576 5580 5585 5590 5595 5599 5605 5611 5616 5622 5628 5632 5635 5639 5642 5648 5653 5660 5665 5669 5675 5678 5678 5678 5687 5687 5694 5695 5697 5700 5701 5703 5704 5705 5706
5502 5509 5517 5524 5531 5537 5543 5549 5555 5560 5567 5572 5577 5582 5589 5592 5597 5601 5606 5611 5616 5621 5625 5629 5634 5639 5644 5648 5648 5654 5660 5662 5662 5672 5668 5684 5682 5685 5685 5685 5686 5688 5691 5692 5693
5492 5499 5508 5516 5522 5527 5532 5540 5548 5553 5559 5565 5571 5575 5580 5585 5590 5594 5599 5602 5606 5612 5615 5620 5624 5628 5631 5636 5638 5640 5646 5650 5654 5659 5661 5665 5671 5672 5674 5676 5677 5677 5676 5676 5679
5481 5488 5495 5501 5508 5514 5524 5532 5538 5544 5549 5556 5561 5567 5571 5576 5579 5586 5590 5593 5597 5600 5604 5609 5614 5618 5621 5625 5628 5627 5641 5640 5646 5648 5652 5654 5665 5660 5660 5662 5663 5664 5666 5667 5668